Showing default

GALILEO 21 (2C7), 43057

Orbit data source: Space-Track

GALILEO 21 (2C7), 43057 is a payload satellite owned by GNSS Agency (ESA) that was launched on Tue, 12 Dec 2017 UTC via an ARIANE 5ES launch vehicle from the French Guiana (FRGUI). Payload-class satellites include a variety of spacecraft equipped with specific instruments for various scientific and technological missions. These include communications satellites like Starlink; space stations such as the ISS; scientific satellites like the Hubble; Earth observation satellites from companies like Planet Labs, Umbra, and HawkEye 360; GPS; miniature CubeSats for education and research; and military/defense satellites.

Loading next visibility...
Identifier
43057, 2017-079C
Orbit
Active
Country
Flag of ESAESA
Related business
Manufacturer
OHB
Mission
Operational Civil Navigation
Bus & Motor
GALILEOSAT, AOCS
Mass
715 kg wet, 700 kg dry
Launch date (UTC)
2017-12-12 (8 years ago)
Launch vehicle
ARIANE 5ES
Launch site
French Guiana (FRGUI)
Object type
Payload
Rocket body
Debris
Shape & HBR
Box + 2 Pan, 7.3 m
Radar Cross Section
9.223 m², Large (>1 m²)

Expand to show TLE details & history
Last TLE update: 2 days ago

TLE from 2 days ago
0 GALILEO 21 (2C7)
1 43057U 17079C   25348.75445005  .00000035  00000-0  00000-0 0  9993
2 43057  55.1277 226.5802 0002798 346.6847  13.3944  1.70474057 49841
Epoch: 2025-12-14T18:06Z
TLE epoch observation values (Epoch: 2025-12-14T18:06:24.484Z)
Latitude
0.00001°
Longitude
-128.67727°
Altitude
23,214.376 km
Speed
3.671 km/s
True Right ascension
15h 06m 21s
True Declination
0° 00' 00"
Sunlit
Object was in daylight at epoch
Visualization orbit readout
Latitude
Unknown
Longitude
Unknown
Altitude
Unknown
Speed
Unknown
Apparent Right ascension
Unknown
Apparent Declination
Unknown
Sunlit
N/A
Visualization observer readout
Local Sidereal Time
12:10:00
Azimuth
Unknown
Elevation
Unknown
Doppler factor
Unknown
Orbital elements
Apogee altitude
23,230.462 km
Perigee altitude
23,213.898 km
Semi-major axis
29,600.317 km
Eccentricity
0.00028
Inclination
55.1277°
RAAN
226.5802°
Arg. of periapsis
346.6847°
True anomaly
13.40183°
Mean anomaly
13.3944°
Eccentric anomaly
13.39811°
Mean motion
0.42619 °/min
Orbital period
844.7 mins
BSTAR
0
Loading maneuver chart data...
Computing Atmospheric mass density...
Loading historical data...
Loading historical data...
Loading historical data...
Loading historical data...
Loading historical data...
Loading historical data...
Loading historical data...
Other satellites on launch #79 in the year 2017 (2017-12-12 UTC)

Documentation

Showing up to 5 results
|